[[{"header":{"parameterUnit":"m.s-1","parameterCategory":1,"la1":30.2991,"la2":30.254,"lo1":-89.0895,"lo2":-89.0444,"dy":0.0017,"dx":0.0017,"nx":28,"ny":28,"refTime":"2023-10-26T21:00:00:Z","depth":0,"parameterNumber":2,"parameterNumberName":"U-component_of_WINDS"},"data":[0,0,0,0,0,0,0,0,0,0,0,0,0,0,0,0,0,0,0,0,0,0,0,0,0,0,0,0,0,0,0,0,0,0,0,0,0,0,0,0,0,0,0,0,0,0,0,0,0,0,0,0,0,0,0,0,0,0,-2.3989,-2.3989,0,-2.4053,-2.4053,-2.4054,-2.4007,-2.4005,-2.4003,-2.4001,-2.4069,-2.4073,-2.4076,0,0,0,0,0,0,0,0,0,0,0,0,0,-2.383,-2.3833,-2.3989,-2.3989,-2.399,-2.4052,-2.4053,-2.4054,-2.4008,-2.4005,-2.4003,-2.4,-2.4068,-2.4072,-2.4077,0,0,0,0,0,0,0,0,0,0,0,0,0,-2.3897,-2.3834,-2.3988,-2.3975,-2.3974,-2.4052,-2.4053,-2.4054,-2.4008,-2.4005,-2.4002,-2.3999,-2.4067,-2.4072,-2.4077,-2.4174,0,0,-2.4095,-2.4097,0,0,0,0,0,0,0,0,-2.3893,-2.3903,-2.3976,-2.3976,-2.3975,-2.4019,-2.4022,-2.4094,-2.4009,-2.3995,-2.4001,-2.3998,-2.4055,-2.4061,-2.408,-2.4177,-2.418,-2.4095,-2.4098,-2.4101,-2.4102,0,0,0,0,0,0,0,-2.3889,-2.39,-2.4014,-2.3977,-2.3977,-2.3966,-2.3972,-2.4036,-2.4042,-2.3996,-2.3993,-2.4001,-2.4054,-2.4075,-2.4081,-2.4181,-2.4095,-2.41,-2.4103,-2.4105,-2.4362,-2.4365,0,0,0,0,0,0,-2.3885,-2.3897,-2.4012,-2.4016,-2.3926,-2.3972,-2.3978,-2.4008,-2.4041,-2.4043,-2.4004,-2.3999,-2.4067,-2.4075,-2.4084,-2.4199,-2.4101,-2.4106,-2.4109,-2.4358,-2.4362,-2.4366,0,0,0,0,0,0,-2.3882,-2.3896,-2.4009,-2.3955,-2.3969,-2.3978,-2.4011,-2.4011,-2.4031,-2.4047,-2.4048,-2.4023,-2.4065,-2.4076,-2.4152,-2.4201,-2.4108,-2.4114,-2.4354,-2.436,-2.4364,-2.4431,0,0,0,0,0,0,-2.3878,-2.3895,-2.393,-2.3956,-2.3972,-2.4075,-2.4014,-2.4014,-2.4041,-2.4035,-2.4065,-2.4067,-2.4063,-2.4144,-2.4157,-2.4207,-2.4118,-2.435,-2.4357,-2.4363,-2.4424,-2.4437,-2.4449,0,0,0,0,0,-2.3872,-2.3947,-2.3932,-2.3947,-2.4016,-2.4078,-2.4087,-2.408,-2.4045,-2.4081,-2.4092,-2.4066,-2.4194,-2.4152,-2.4167,-2.4219,-2.4347,-2.4355,-2.4362,-2.4419,-2.4435,-2.4449,0,0,0,0,0,0,-2.3926,-2.395,-2.3934,-2.4019,-2.4047,-2.407,-2.4116,-2.4097,-2.4136,-2.4129,-2.412,-2.4127,-2.4207,-2.4221,-2.4174,-2.4315,-2.4265,-2.4276,-2.4302,-2.4318,-2.433,-2.4325,-2.4123,0,0,0,0,0,-2.3948,-2.3995,-2.4014,-2.4087,-2.4102,-2.4107,-2.4133,-2.4126,-2.4154,-2.4166,-2.4182,-2.4212,-2.4258,-2.4289,-2.4333,-2.4427,-2.4433,-2.447,-2.4482,-2.4492,-2.4502,-2.4554,-2.4571,-2.4392,-2.4392,-2.4392,0,0,-2.3994,-2.4013,-2.4043,-2.4099,-2.4119,-2.417,-2.4117,-2.4172,-2.4209,-2.4175,-2.4247,-2.426,-2.4293,-2.4379,-2.4417,-2.4393,-2.4553,-2.4502,-2.451,-2.4514,-2.4564,-2.4581,-2.4596,-2.4397,-2.4396,-2.4395,0,0,-2.4102,-2.4121,-2.4184,-2.4207,-2.4239,-2.4242,-2.4258,-2.4284,-2.4291,-2.4364,-2.4339,-2.4385,-2.4465,-2.449,-2.4513,-2.4635,-2.4613,-2.4649,-2.4714,-2.4764,-2.4778,-2.4791,-2.4835,-2.485,-2.4659,-2.4659,-2.4659,0,-2.4155,-2.4228,-2.422,-2.4277,-2.4303,-2.4274,-2.434,-2.4362,-2.4407,-2.4426,-2.4398,-2.45,-2.452,-2.4611,-2.4641,-2.4661,-2.4679,-2.4645,-2.4777,-2.4789,-2.4801,-2.4842,-2.4859,-2.4663,-2.4663,-2.4662,-2.4662,0,-2.4292,-2.4344,-2.4392,-2.4436,-2.4467,-2.4528,-2.453,-2.4564,-2.4555,-2.4561,-2.4637,-2.466,-2.4709,-2.4731,-2.4722,-2.4822,-2.4806,-2.4778,-2.4727,-2.4822,-2.4861,-2.4877,-2.4669,-2.4668,-2.4666,-2.4665,0,0,-2.4434,-2.4474,-2.4492,-2.4512,-2.4547,-2.4587,-2.4648,-2.4695,-2.4724,-2.4758,-2.4809,-2.4879,-2.4854,-2.4881,-2.4875,-2.492,-2.5015,-2.4886,-2.4887,-2.4909,-2.5128,-2.5148,-2.5167,-2.5002,-2.5005,-2.5008,-2.5125,0,-2.4544,-2.4648,-2.4644,-2.4742,-2.4791,-2.4766,-2.4819,-2.4847,-2.4856,-2.49,-2.491,-2.496,-2.4923,-2.4939,-2.4982,-2.4994,-2.5059,-2.4986,-2.5051,-2.5053,-2.5042,-2.5187,-2.5208,-2.5318,-2.514,-2.5143,-2.5145,0,-2.4685,-2.4723,-2.4826,-2.4855,-2.4876,-2.4923,-2.4967,-2.5009,-2.5042,-2.5045,-2.5076,-2.5064,-2.5127,-2.5077,-2.5165,-2.5115,-2.5142,-2.5153,-2.5157,-2.5162,-2.5104,-2.5196,-2.5353,-2.5369,-2.5169,-2.5167,-2.5165,0,-2.4779,-2.4856,-2.4927,-2.4946,-2.4981,-2.5016,-2.5033,-2.5062,-2.5091,-2.5131,-2.515,-2.5197,-2.5222,-2.5259,-2.5261,-2.5223,-2.535,-2.5299,-2.5356,-2.5356,-2.5382,-2.538,-2.5545,-2.5401,-2.5401,-2.5401,-2.54,0,-2.4901,-2.4965,-2.497,-2.5014,-2.5086,-2.5082,-2.5153,-2.5167,-2.5194,-2.5241,-2.5224,-2.5269,-2.5269,-2.5316,-2.5318,-2.5391,-2.5403,-2.5408,-2.5408,-2.5409,-2.5408,-2.5426,-2.5418,-2.5405,-2.5404,-2.5403,-2.5402,0,-2.5016,-2.5022,-2.5099,-2.5127,-2.5136,-2.5188,-2.5212,-2.5255,-2.5264,-2.5324,-2.5338,-2.5352,-2.5406,-2.5412,-2.5475,-2.5477,-2.5566,-2.5557,-2.5554,-2.5553,-2.5609,-2.5603,-2.579,-2.5814,-2.5655,-2.5656,-2.5658,0,-2.5094,-2.5142,-2.5176,-2.5207,-2.5225,-2.5274,-2.5304,-2.5303,-2.5336,-2.5377,-2.5416,-2.5469,-2.551,-2.5599,-2.5615,-2.5665,-2.5657,-2.5719,-2.5664,-2.5665,-2.5658,-2.5655,-2.566,-2.5729,-2.5731,-2.5733,-2.5734,0,-2.523,-2.5231,-2.5275,-2.532,-2.5357,-2.5393,-2.5426,-2.5453,-2.5456,-2.5494,-2.5549,-2.5582,-2.5647,-2.57,-2.5749,-2.5768,-2.5752,-2.5751,-2.5767,-2.5768,-2.5764,-2.5767,-2.5583,-2.5747,-2.5745,-2.5744,-2.5744,-2.5743,-2.5329,-2.5371,-2.5402,-2.5452,-2.5477,-2.551,-2.5552,-2.5566,-2.5612,-2.5664,-2.5661,-2.5723,-2.5757,-2.582,-2.5843,-2.5892,-2.5872,-2.5894,-2.59,-2.5905,-2.5911,-2.5758,-2.5901,-2.5901,-2.5901,-2.59,-2.59,0,-2.5464,-2.5483,-2.5529,-2.5577,-2.5617,-2.5599,-2.5636,-2.5671,-2.5725,-2.5757,-2.5799,-2.5864,-2.5916,-2.5937,-2.5989,-2.6024,-2.6018,-2.6038,-2.6035,-2.604,-2.5927,-2.5908,-2.6042,-2.6042,-2.6042,-2.6042,-2.6042,-2.6042,-2.5539,-2.5611,-2.5616,-2.5701,-2.572,-2.5779,-2.5802,-2.5833,-2.5859,-2.5932,-2.5975,-2.5988,-2.6017,-2.6071,-2.6118,-2.6124,-2.6143,-2.6166,-2.6168,-2.6062,-2.6047,-2.6034,-2.6016,-2.617,-2.617,-2.6277,-2.6278,-2.6278]},{"header":{"parameterUnit":"m.s-1","parameterCategory":1,"la1":30.2991,"la2":30.254,"lo1":-89.0895,"lo2":-89.0444,"dy":0.0017,"dx":0.0017,"nx":28,"ny":28,"refTime":"2023-10-26T21:00:00:Z","depth":0,"parameterNumber":3,"parameterNumberName":"V-component_of_WINDS"},"data":[0,0,0,0,0,0,0,0,0,0,0,0,0,0,0,0,0,0,0,0,0,0,0,0,0,0,0,0,0,0,0,0,0,0,0,0,0,0,0,0,0,0,0,0,0,0,0,0,0,0,0,0,0,0,0,0,0,0,0.888,0.8881,0,0.8933,0.8934,0.8935,0.9005,0.9007,0.9008,0.9009,0.906,0.906,0.9061,0,0,0,0,0,0,0,0,0,0,0,0,0,0.8838,0.8839,0.888,0.8881,0.8882,0.8933,0.8934,0.8935,0.9005,0.9007,0.9008,0.901,0.906,0.906,0.9061,0,0,0,0,0,0,0,0,0,0,0,0,0,0.887,0.8839,0.888,0.8923,0.8928,0.8933,0.8934,0.8935,0.9005,0.9007,0.9009,0.901,0.906,0.906,0.9061,0.9027,0,0,0.9062,0.9062,0,0,0,0,0,0,0,0,0.8868,0.8872,0.8916,0.892,0.8925,0.8965,0.8938,0.8966,0.9005,0.8975,0.9009,0.9011,0.9027,0.903,0.9036,0.903,0.9032,0.9062,0.9062,0.9062,0.9062,0,0,0,0,0,0,0,0.8866,0.887,0.8901,0.8917,0.8922,0.8939,0.8946,0.8944,0.899,0.8978,0.8983,0.8989,0.9029,0.9035,0.9038,0.9033,0.9062,0.9062,0.9062,0.9063,0.9003,0.9001,0,0,0,0,0,0,0.8858,0.8867,0.89,0.8903,0.8901,0.8938,0.8946,0.895,0.8991,0.8999,0.8987,0.8992,0.9034,0.9037,0.904,0.9004,0.9062,0.9063,0.9063,0.9004,0.9002,0.9,0,0,0,0,0,0,0.8857,0.886,0.8897,0.8887,0.8893,0.8937,0.8942,0.895,0.8956,0.8998,0.9006,0.8985,0.9035,0.9039,0.903,0.9006,0.9063,0.9063,0.9007,0.9004,0.9001,0.8931,0,0,0,0,0,0,0.8855,0.8859,0.8847,0.8886,0.8893,0.8887,0.894,0.895,0.8957,0.8964,0.8997,0.9005,0.9037,0.9029,0.9031,0.9008,0.9063,0.9009,0.9005,0.9002,0.8936,0.8926,0.8918,0,0,0,0,0,0.8853,0.8825,0.8846,0.885,0.8879,0.8886,0.889,0.8929,0.8955,0.8943,0.897,0.9004,0.9009,0.9028,0.903,0.9007,0.9011,0.9006,0.9002,0.894,0.8928,0.8918,0,0,0,0,0,0,0.878,0.883,0.8855,0.8838,0.8857,0.8898,0.8884,0.8915,0.8927,0.8932,0.8979,0.8986,0.8971,0.8988,0.9008,0.8977,0.9015,0.9011,0.8966,0.8956,0.8947,0.8943,0.9064,0,0,0,0,0,0.8763,0.8765,0.8808,0.8789,0.8797,0.8839,0.8843,0.8872,0.8893,0.8901,0.8927,0.8946,0.8952,0.8955,0.8963,0.8939,0.8947,0.8924,0.8915,0.8908,0.8904,0.8893,0.8883,0.8987,0.8987,0.8987,0,0,0.8725,0.8753,0.8751,0.8775,0.8793,0.8794,0.8845,0.8843,0.8844,0.8901,0.8894,0.8914,0.8938,0.8922,0.8916,0.8935,0.8877,0.8903,0.8897,0.8896,0.8887,0.8877,0.8869,0.8984,0.8985,0.8985,0,0,0.8658,0.8679,0.8666,0.8684,0.8711,0.8739,0.8736,0.8772,0.8788,0.8783,0.8825,0.8826,0.8836,0.8851,0.886,0.88,0.8832,0.8801,0.8755,0.8744,0.8736,0.8729,0.8707,0.8698,0.8797,0.8797,0.8797,0,0.8608,0.8611,0.8655,0.8651,0.866,0.8713,0.8699,0.8714,0.8742,0.8747,0.8769,0.8783,0.8802,0.879,0.8776,0.8782,0.8779,0.8797,0.8733,0.8727,0.8721,0.8701,0.8692,0.8793,0.8794,0.8794,0.8794,0,0.8548,0.855,0.8536,0.8563,0.8571,0.8562,0.8603,0.8606,0.8634,0.8659,0.8653,0.8679,0.8693,0.8693,0.8719,0.8684,0.8696,0.8725,0.8764,0.8706,0.8688,0.8681,0.8788,0.8789,0.879,0.8791,0,0,0.8435,0.8488,0.8482,0.8495,0.853,0.8532,0.8526,0.8541,0.8542,0.856,0.8555,0.8562,0.859,0.86,0.8629,0.8619,0.857,0.865,0.8651,0.8634,0.8533,0.851,0.8501,0.8591,0.859,0.8589,0.8531,0,0.8374,0.8367,0.8407,0.8389,0.8391,0.8441,0.8436,0.8456,0.848,0.8485,0.8511,0.8515,0.8552,0.8558,0.8551,0.8577,0.855,0.8582,0.8587,0.8586,0.8579,0.8491,0.8468,0.8411,0.8524,0.8523,0.8522,0,0.8302,0.8317,0.83,0.8336,0.8339,0.8333,0.835,0.8355,0.8379,0.8397,0.8409,0.8443,0.8439,0.8476,0.8471,0.8491,0.8496,0.8509,0.8508,0.8509,0.855,0.849,0.8394,0.8386,0.8511,0.8512,0.8513,0,0.8221,0.8237,0.8229,0.8239,0.8281,0.8276,0.8294,0.832,0.8327,0.8342,0.8347,0.836,0.8367,0.8377,0.8414,0.8438,0.8404,0.8444,0.8418,0.8417,0.8408,0.8408,0.8311,0.8411,0.8412,0.8412,0.8412,0,0.8148,0.8135,0.8194,0.8188,0.8176,0.8221,0.8207,0.8229,0.8252,0.8252,0.8296,0.8295,0.8343,0.8347,0.8376,0.8367,0.837,0.8384,0.8391,0.838,0.8378,0.8382,0.8387,0.841,0.841,0.841,0.8411,0,0.8056,0.8094,0.8089,0.813,0.814,0.8128,0.8164,0.816,0.8187,0.8186,0.8189,0.8231,0.8238,0.8276,0.8291,0.831,0.8291,0.8306,0.8283,0.8288,0.8259,0.8261,0.8162,0.8151,0.8258,0.8257,0.8256,0,0.8006,0.7998,0.8039,0.8042,0.8058,0.8063,0.8071,0.8115,0.8121,0.8149,0.8142,0.8152,0.8163,0.8172,0.8203,0.8215,0.8231,0.8196,0.8233,0.8222,0.823,0.823,0.823,0.8187,0.8186,0.8185,0.8184,0,0.7915,0.7935,0.7945,0.7961,0.7969,0.7984,0.8002,0.8002,0.8051,0.8055,0.8064,0.8072,0.8089,0.8098,0.8116,0.8133,0.8166,0.8172,0.8167,0.8154,0.8141,0.8147,0.826,0.8174,0.8175,0.8176,0.8176,0.8177,0.7843,0.7838,0.7866,0.7876,0.7894,0.7909,0.7908,0.7936,0.7944,0.7961,0.7987,0.7992,0.8017,0.8044,0.8058,0.8062,0.8081,0.8073,0.8071,0.8069,0.8062,0.814,0.8066,0.8066,0.8066,0.8067,0.8067,0,0.7754,0.7775,0.7783,0.7807,0.7814,0.7846,0.7867,0.7871,0.7875,0.7896,0.7906,0.7916,0.7926,0.7959,0.7972,0.7969,0.7984,0.7971,0.7971,0.7974,0.8045,0.8048,0.7958,0.7958,0.7958,0.7958,0.7958,0.7958,0.7708,0.7702,0.7725,0.7728,0.7749,0.7755,0.7764,0.7778,0.7795,0.7804,0.7813,0.7835,0.7861,0.7876,0.7887,0.7896,0.7899,0.788,0.7894,0.7959,0.7969,0.7979,0.7983,0.788,0.788,0.7824,0.7823,0.7823]}]]